Time,TemperatureF,DewpointF,PressureIn,WindDirection,WindDirectionDegrees,WindSpeedMPH,WindSpeedGustMPH,Humidity,HourlyPrecipIn,Conditions,Clouds,dailyrainin,SoftwareType,DateUTC
2013-11-24 00:11:00,34.6,23.0,29.43,West,280,4.0,13.0,63,0.00,,,0.00,weatherlink.com 1.10,2013-11-24 05:11:00,
2013-11-24 00:26:00,34.1,23.0,29.44,NNE,17,3.0,11.0,65,0.00,,,0.00,weatherlink.com 1.10,2013-11-24 05:26:00,
2013-11-24 00:41:00,33.7,24.0,29.44,North,5,5.0,11.0,67,0.00,,,0.00,weatherlink.com 1.10,2013-11-24 05:41:00,
2013-11-24 00:56:00,33.2,24.0,29.45,NNW,348,4.0,12.0,68,0.00,,,0.00,weatherlink.com 1.10,2013-11-24 05:56:00,
2013-11-24 01:11:00,32.8,24.0,29.45,NNE,28,3.0,11.0,69,0.00,,,0.00,weatherlink.com 1.10,2013-11-24 06:11:00,
2013-11-24 01:26:00,32.3,23.0,29.45,NNW,331,1.0,15.0,69,0.00,,,0.00,weatherlink.com 1.10,2013-11-24 06:26:00,
2013-11-24 01:41:00,31.9,22.0,29.44,NNW,347,7.0,13.0,68,0.00,,,0.00,weatherlink.com 1.10,2013-11-24 06:41:00,
2013-11-24 01:56:00,31.6,22.0,29.45,NNE,22,2.0,11.0,69,0.00,,,0.00,weatherlink.com 1.10,2013-11-24 06:56:00,
2013-11-24 02:12:00,31.3,22.0,29.46,North,355,3.0,9.0,69,0.00,,,0.00,weatherlink.com 1.10,2013-11-24 07:12:00,
2013-11-24 02:27:00,31.0,21.0,29.46,NW,323,6.0,22.0,67,0.00,,,0.00,weatherlink.com 1.10,2013-11-24 07:27:00,
2013-11-24 02:42:00,30.7,21.0,29.48,ENE,61,3.0,12.0,67,0.00,,,0.00,weatherlink.com 1.10,2013-11-24 07:42:00,
2013-11-24 02:57:00,30.4,21.0,29.48,NW,319,5.0,12.0,67,0.00,,,0.00,weatherlink.com 1.10,2013-11-24 07:57:00,
2013-11-24 03:12:00,30.1,21.0,29.49,North,350,2.0,11.0,68,0.00,,,0.00,weatherlink.com 1.10,2013-11-24 08:12:00,
2013-11-24 03:27:00,29.8,20.0,29.49,NNW,342,2.0,13.0,68,0.00,,,0.00,weatherlink.com 1.10,2013-11-24 08:27:00,
2013-11-24 03:42:00,29.5,20.0,29.49,North,5,1.0,11.0,69,0.00,,,0.00,weatherlink.com 1.10,2013-11-24 08:42:00,
2013-11-24 03:57:00,29.0,20.0,29.49,NW,307,4.0,14.0,70,0.00,,,0.00,weatherlink.com 1.10,2013-11-24 08:57:00,
2013-11-24 04:12:00,28.7,19.0,29.50,NW,325,7.0,13.0,66,0.00,,,0.00,weatherlink.com 1.10,2013-11-24 09:12:00,
2013-11-24 04:27:00,28.3,19.0,29.50,North,11,3.0,11.0,67,0.00,,,0.00,weatherlink.com 1.10,2013-11-24 09:27:00,
2013-11-24 04:42:00,28.0,18.0,29.51,NNW,340,9.0,9.0,67,0.00,,,0.00,weatherlink.com 1.10,2013-11-24 09:42:00,
2013-11-24 04:57:00,27.6,18.0,29.52,NNW,339,7.0,12.0,66,0.00,,,0.00,weatherlink.com 1.10,2013-11-24 09:57:00,
2013-11-24 05:12:00,27.2,17.0,29.53,NNW,336,4.0,12.0,66,0.00,,,0.00,weatherlink.com 1.10,2013-11-24 10:12:00,
2013-11-24 05:27:00,26.9,17.0,29.53,NNW,339,4.0,13.0,66,0.00,,,0.00,weatherlink.com 1.10,2013-11-24 10:27:00,
2013-11-24 05:42:00,26.5,16.0,29.54,ENE,75,3.0,13.0,66,0.00,,,0.00,weatherlink.com 1.10,2013-11-24 10:42:00,
2013-11-24 05:57:00,26.2,17.0,29.54,North,360,2.0,13.0,67,0.00,,,0.00,weatherlink.com 1.10,2013-11-24 10:57:00,
2013-11-24 06:12:00,26.0,17.0,29.55,North,349,5.0,13.0,68,0.00,,,0.00,weatherlink.com 1.10,2013-11-24 11:12:00,
2013-11-24 06:27:00,25.8,17.0,29.55,NW,323,3.0,13.0,68,0.00,,,0.00,weatherlink.com 1.10,2013-11-24 11:27:00,
2013-11-24 06:42:00,25.5,16.0,29.56,North,5,3.0,12.0,68,0.00,,,0.00,weatherlink.com 1.10,2013-11-24 11:42:00,
2013-11-24 06:57:00,25.2,16.0,29.56,NNE,24,6.0,10.0,68,0.00,,,0.00,weatherlink.com 1.10,2013-11-24 11:57:00,
2013-11-24 07:12:00,24.9,16.0,29.57,NW,313,3.0,11.0,69,0.00,,,0.00,weatherlink.com 1.10,2013-11-24 12:12:00,
2013-11-24 07:27:00,24.7,16.0,29.57,NNW,338,4.0,12.0,69,0.00,,,0.00,weatherlink.com 1.10,2013-11-24 12:27:00,
2013-11-24 07:42:00,24.5,16.0,29.58,NNW,327,5.0,14.0,70,0.00,,,0.00,weatherlink.com 1.10,2013-11-24 12:42:00,
2013-11-24 07:57:00,24.5,16.0,29.59,NW,308,7.0,13.0,70,0.00,,,0.00,weatherlink.com 1.10,2013-11-24 12:57:00,
2013-11-24 08:13:00,24.7,16.0,29.60,North,350,8.0,18.0,69,0.00,,,0.00,weatherlink.com 1.10,2013-11-24 13:13:00,
2013-11-24 08:28:00,25.0,17.0,29.60,NNE,28,4.0,11.0,70,0.00,,,0.00,weatherlink.com 1.10,2013-11-24 13:28:00,
2013-11-24 08:43:00,25.5,17.0,29.61,NNW,342,3.0,12.0,69,0.00,,,0.00,weatherlink.com 1.10,2013-11-24 13:43:00,
2013-11-24 08:58:00,26.0,17.0,29.62,NNW,332,2.0,13.0,68,0.00,,,0.00,weatherlink.com 1.10,2013-11-24 13:58:00,
2013-11-24 09:13:00,26.7,17.0,29.62,WNW,296,4.0,8.0,67,0.00,,,0.00,weatherlink.com 1.10,2013-11-24 14:13:00,
2013-11-24 09:28:00,27.4,17.0,29.62,North,9,11.0,14.0,66,0.00,,,0.00,weatherlink.com 1.10,2013-11-24 14:28:00,
2013-11-24 09:43:00,28.1,18.0,29.62,North,355,5.0,18.0,66,0.00,,,0.00,weatherlink.com 1.10,2013-11-24 14:43:00,
2013-11-24 09:58:00,29.3,18.0,29.62,NW,313,4.0,17.0,64,0.00,,,0.00,weatherlink.com 1.10,2013-11-24 14:58:00,
2013-11-24 10:13:00,30.7,19.0,29.62,ESE,105,2.0,17.0,62,0.00,,,0.00,weatherlink.com 1.10,2013-11-24 15:13:00,
2013-11-24 10:28:00,31.8,20.0,29.62,NW,307,8.0,11.0,61,0.00,,,0.00,weatherlink.com 1.10,2013-11-24 15:28:00,
2013-11-24 10:43:00,32.3,19.0,29.61,NNW,340,7.0,14.0,59,0.00,,,0.00,weatherlink.com 1.10,2013-11-24 15:43:00,
2013-11-24 10:58:00,33.1,20.0,29.61,NNW,347,2.0,12.0,58,0.00,,,0.00,weatherlink.com 1.10,2013-11-24 15:58:00,
2013-11-24 11:13:00,33.5,20.0,29.61,NNW,332,7.0,11.0,57,0.00,,,0.00,weatherlink.com 1.10,2013-11-24 16:13:00,
2013-11-24 11:28:00,34.0,20.0,29.61,SE,140,2.0,10.0,58,0.00,,,0.00,weatherlink.com 1.10,2013-11-24 16:28:00,
2013-11-24 11:43:00,34.6,19.0,29.60,NNW,344,6.0,14.0,54,0.00,,,0.00,weatherlink.com 1.10,2013-11-24 16:43:00,
2013-11-24 11:58:00,35.4,20.0,29.60,North,360,4.0,11.0,53,0.00,,,0.00,weatherlink.com 1.10,2013-11-24 16:58:00,
2013-11-24 12:13:00,36.3,20.0,29.59,North,355,4.0,11.0,52,0.00,,,0.00,weatherlink.com 1.10,2013-11-24 17:13:00,
2013-11-24 12:28:00,37.4,20.0,29.58,NW,314,2.0,13.0,50,0.00,,,0.00,weatherlink.com 1.10,2013-11-24 17:28:00,
2013-11-24 12:43:00,39.1,19.0,29.57,North,355,5.0,15.0,44,0.00,,,0.00,weatherlink.com 1.10,2013-11-24 17:43:00,
2013-11-24 12:58:00,39.8,18.0,29.56,North,360,4.0,11.0,42,0.00,,,0.00,weatherlink.com 1.10,2013-11-24 17:58:00,
2013-11-24 13:13:00,40.1,18.0,29.56,NNW,348,5.0,13.0,41,0.00,,,0.00,weatherlink.com 1.10,2013-11-24 18:13:00,
2013-11-24 13:28:00,40.4,17.0,29.55,NW,317,2.0,14.0,39,0.00,,,0.00,weatherlink.com 1.10,2013-11-24 18:28:00,
2013-11-24 13:43:00,40.4,16.0,29.55,North,360,5.0,17.0,38,0.00,,,0.00,weatherlink.com 1.10,2013-11-24 18:43:00,
2013-11-24 13:58:00,41.3,14.0,29.54,NE,44,5.0,14.0,33,0.00,,,0.00,weatherlink.com 1.10,2013-11-24 18:58:00,
2013-11-24 14:13:00,41.4,15.0,29.53,North,355,1.0,13.0,35,0.00,,,0.00,weatherlink.com 1.10,2013-11-24 19:13:00,
2013-11-24 14:28:00,40.7,13.0,29.52,ENE,75,3.0,10.0,32,0.00,,,0.00,weatherlink.com 1.10,2013-11-24 19:28:00,
2013-11-24 14:43:00,41.0,14.0,29.52,NNE,24,10.0,10.0,34,0.00,,,0.00,weatherlink.com 1.10,2013-11-24 19:43:00,
2013-11-24 14:58:00,40.8,11.0,29.52,East,80,6.0,12.0,30,0.00,,,0.00,weatherlink.com 1.10,2013-11-24 19:58:00,
2013-11-24 15:13:00,40.9,11.0,29.52,NNW,344,4.0,15.0,29,0.00,,,0.00,weatherlink.com 1.10,2013-11-24 20:13:00,
2013-11-24 15:28:00,41.7,13.0,29.52,North,355,8.0,9.0,31,0.00,,,0.00,weatherlink.com 1.10,2013-11-24 20:28:00,
2013-11-24 15:43:00,41.0,11.0,29.52,North,360,4.0,19.0,29,0.00,,,0.00,weatherlink.com 1.10,2013-11-24 20:43:00,
2013-11-24 15:58:00,40.4,9.0,29.52,NW,324,4.0,16.0,27,0.00,,,0.00,weatherlink.com 1.10,2013-11-24 20:58:00,
2013-11-24 16:13:00,39.7,10.0,29.53,North,5,2.0,12.0,29,0.00,,,0.00,weatherlink.com 1.10,2013-11-24 21:13:00,
2013-11-24 16:28:00,38.8,8.0,29.54,NNE,14,4.0,10.0,28,0.00,,,0.00,weatherlink.com 1.10,2013-11-24 21:28:00,
2013-11-24 16:43:00,37.5,10.0,29.54,NNW,338,1.0,7.0,32,0.00,,,0.00,weatherlink.com 1.10,2013-11-24 21:43:00,
2013-11-24 16:58:00,36.7,11.0,29.53,North,360,2.0,7.0,35,0.00,,,0.00,weatherlink.com 1.10,2013-11-24 21:58:00,
2013-11-24 17:13:00,36.0,9.0,29.53,North,360,5.0,9.0,33,0.00,,,0.00,weatherlink.com 1.10,2013-11-24 22:13:00,
2013-11-24 17:28:00,35.2,9.0,29.53,North,11,2.0,5.0,34,0.00,,,0.00,weatherlink.com 1.10,2013-11-24 22:28:00,
2013-11-24 17:43:00,34.4,10.0,29.53,North,11,3.0,9.0,36,0.00,,,0.00,weatherlink.com 1.10,2013-11-24 22:43:00,
2013-11-24 17:58:00,33.8,10.0,29.54,NNE,18,3.0,6.0,37,0.00,,,0.00,weatherlink.com 1.10,2013-11-24 22:58:00,
2013-11-24 18:13:00,33.3,9.0,29.54,NW,326,1.0,7.0,37,0.00,,,0.00,weatherlink.com 1.10,2013-11-24 23:13:00,
2013-11-24 18:28:00,32.7,11.0,29.54,NW,316,0.0,4.0,41,0.00,,,0.00,weatherlink.com 1.10,2013-11-24 23:28:00,
2013-11-24 18:43:00,32.1,11.0,29.55,NW,323,0.0,3.0,42,0.00,,,0.00,weatherlink.com 1.10,2013-11-24 23:43:00,
2013-11-24 18:58:00,31.5,11.0,29.55,NE,55,1.0,5.0,43,0.00,,,0.00,weatherlink.com 1.10,2013-11-24 23:58:00,
2013-11-24 19:13:00,31.2,11.0,29.54,North,355,5.0,5.0,44,0.00,,,0.00,weatherlink.com 1.10,2013-11-25 00:13:00,
2013-11-24 19:28:00,31.2,10.0,29.55,NW,321,2.0,4.0,42,0.00,,,0.00,weatherlink.com 1.10,2013-11-25 00:28:00,
2013-11-24 19:43:00,31.4,10.0,29.55,North,360,0.0,6.0,41,0.00,,,0.00,weatherlink.com 1.10,2013-11-25 00:43:00,
2013-11-24 19:58:00,31.5,10.0,29.54,NE,36,3.0,8.0,41,0.00,,,0.00,weatherlink.com 1.10,2013-11-25 00:58:00,
2013-11-24 20:13:00,31.5,10.0,29.53,NNW,327,1.0,6.0,41,0.00,,,0.00,weatherlink.com 1.10,2013-11-25 01:13:00,
2013-11-24 20:28:00,31.3,10.0,29.53,NW,325,2.0,6.0,41,0.00,,,0.00,weatherlink.com 1.10,2013-11-25 01:28:00,
2013-11-24 20:43:00,31.2,10.0,29.53,North,5,0.0,5.0,41,0.00,,,0.00,weatherlink.com 1.10,2013-11-25 01:43:00,
2013-11-24 20:59:00,31.3,11.0,29.54,North,360,4.0,9.0,43,0.00,,,0.00,weatherlink.com 1.10,2013-11-25 01:59:00,
2013-11-24 21:14:00,31.3,11.0,29.53,NW,321,1.0,8.0,42,0.00,,,0.00,weatherlink.com 1.10,2013-11-25 02:14:00,
2013-11-24 21:29:00,31.4,11.0,29.53,North,350,2.0,4.0,43,0.00,,,0.00,weatherlink.com 1.10,2013-11-25 02:29:00,
2013-11-24 21:44:00,31.2,11.0,29.54,NNW,340,3.0,7.0,44,0.00,,,0.00,weatherlink.com 1.10,2013-11-25 02:44:00,
2013-11-24 21:59:00,31.2,12.0,29.54,NNE,21,0.0,5.0,45,0.00,,,0.00,weatherlink.com 1.10,2013-11-25 02:59:00,
2013-11-24 22:14:00,31.0,12.0,29.54,NE,39,1.0,6.0,45,0.00,,,0.00,weatherlink.com 1.10,2013-11-25 03:14:00,
2013-11-24 22:29:00,30.8,13.0,29.54,NNE,24,1.0,5.0,47,0.00,,,0.00,weatherlink.com 1.10,2013-11-25 03:29:00,
2013-11-24 22:44:00,30.4,12.0,29.54,North,355,0.0,4.0,47,0.00,,,0.00,weatherlink.com 1.10,2013-11-25 03:44:00,
2013-11-24 22:59:00,30.1,13.0,29.54,NNE,12,1.0,3.0,50,0.00,,,0.00,weatherlink.com 1.10,2013-11-25 03:59:00,
2013-11-24 23:14:00,29.6,13.0,29.54,North,360,1.0,2.0,51,0.00,,,0.00,weatherlink.com 1.10,2013-11-25 04:14:00,
2013-11-24 23:29:00,29.3,13.0,29.54,NNW,346,1.0,2.0,50,0.00,,,0.00,weatherlink.com 1.10,2013-11-25 04:29:00,
2013-11-24 23:44:00,29.0,14.0,29.54,NNW,344,2.0,4.0,53,0.00,,,0.00,weatherlink.com 1.10,2013-11-25 04:44:00,
2013-11-24 23:59:00,28.8,14.0,29.54,North,360,1.0,4.0,54,0.00,,,0.00,weatherlink.com 1.10,2013-11-25 04:59:00,